Location: Dalton
(34.7700°N, 84.9700°W)
Time: 07:09:43
(UTC-05:00)

Tiangong 2 - Pass Details

Date: 10 October 2017
Orbit: 386 x 390 km, 42.8° (Epoch: 17 December)

Event Time Altitude Azimuth Distance (km) Brightness Sun altitude
Exits shadow 05:33:14 20° 66° (ENE) 982 3.8 -27.1°
Drops below altitude 10° 05:34:20 10° 64° (ENE) 1,422 4.9 -26.9°
Sets 05:36:25 0° 63° (ENE) 2,281 6.2 -26.5°
